DW7394 Weather Reports


Display with metric or nautical units.
time (UTC)temp
F
wind
direction
speed
MPH
gust
MPH
rain 1hr
in
rain 24hr
in
rain mn
in
humidity
%
barometer
mb
20260507062546 42 154 4.0 8.0 0.00 0.19 0.00 75 1013.0
20260507062045 42 173 4.0 7.0 0.00 0.19 0.00 75 1013.1
20260507061545 43 192 3.0 7.0 0.00 0.19 0.00 75 1013.2
20260507061043 43 135 2.0 7.0 0.00 0.19 0.00 75 1013.2
20260507060541 43 183 2.0 8.0 0.00 0.19 0.00 75 1013.2
20260507060041 43 199 3.0 8.0 0.00 0.19 0.00 75 1013.2
20260507055540 43 218 2.0 6.0 0.00 0.25 0.00 75 1013.2
20260507055042 43 166 3.0 6.0 0.00 0.25 0.00 75 1013.2
20260507054542 43 140 3.0 6.0 0.00 0.25 0.00 75 1013.3
20260507054038 43 201 2.0 5.0 0.00 0.25 0.00 75 1013.3
20260507053537 43 130 2.0 8.0 0.00 0.25 0.00 74 1013.3
20260507053037 43 164 3.0 8.0 0.00 0.25 0.00 75 1013.2
20260507052537 44 133 3.0 6.0 0.00 0.25 0.00 74 1013.3
20260507052035 44 154 2.0 6.0 0.00 0.25 0.00 74 1013.3
20260507051535 44 135 3.0 6.0 0.00 0.25 0.00 74 1013.4
20260507051134 44 143 2.0 6.0 0.00 0.25 0.00 74 1013.5
20260507050532 44 158 3.0 8.0 0.00 0.25 0.00 74 1013.5
20260507050037 44 126 3.0 7.0 0.00 0.25 0.00 74 1013.6
20260507045530 44 163 2.0 6.0 0.00 0.28 0.00 74 1013.6
20260507045030 44 147 2.0 8.0 0.00 0.28 0.00 74 1013.6
20260507044536 44 84 3.0 8.0 0.00 0.28 0.00 75 1013.6
20260507044029 44 165 3.0 8.0 0.00 0.28 0.00 75 1013.6
20260507043528 44 144 3.0 9.0 0.00 0.28 0.00 75 1013.6
20260507043027 44 147 3.0 9.0 0.00 0.28 0.00 75 1013.6
20260507042525 44 84 2.0 6.0 0.00 0.28 0.00 75 1013.7
20260507042025 44 147 2.0 5.0 0.00 0.28 0.00 75 1013.6
20260507041531 44 112 1.0 5.0 0.00 0.28 0.00 75 1013.7
20260507041023 44 117 1.0 5.0 0.00 0.28 0.00 75 1013.7
20260507040522 44 76 2.0 4.0 0.00 0.28 0.00 75 1013.7
20260507040021 44 140 2.0 4.0 0.00 0.28 0.00 75 1013.9
20260507035520 44 192 2.0 4.0 0.00 0.38 0.28 75 1013.9
20260507035021 44 192 1.0 5.0 0.00 0.38 0.28 75 1014.0
20260507034521 44 160 2.0 5.0 0.00 0.38 0.28 75 1014.0
20260507034021 44 173 2.0 4.0 0.00 0.38 0.28 74 1014.0
20260507033521 44 130 1.0 4.0 0.00 0.38 0.28 74 1014.0
20260507033025 44 112 2.0 4.0 0.00 0.38 0.28 73 1014.1
20260507032523 44 84 1.0 4.0 0.00 0.38 0.28 73 1014.2
20260507032019 44 98 1.0 3.0 0.00 0.38 0.28 73 1014.1
20260507031525 45 192 1.0 3.0 0.00 0.38 0.28 73 1014.1
20260507031022 45 130 0.0 2.0 0.00 0.38 0.28 72 1014.1
20260507030519 45 173 1.0 2.0 0.00 0.38 0.28 72 1014.2
20260507030019 45 211 1.0 2.0 0.00 0.38 0.28 72 1014.2
20260507025517 45 41 0.0 2.0 0.00 0.53 0.28 71 1014.2
20260507025017 45 173 0.0 2.0 0.00 0.53 0.28 71 1014.0
20260507024518 45 84 1.0 2.0 0.00 0.53 0.28 71 1013.9
20260507024017 45 130 0.0 2.0 0.00 0.53 0.28 71 1013.9
20260507023525 45 84 0.0 2.0 0.00 0.53 0.28 71 1013.9
20260507023017 46 201 0.0 2.0 0.00 0.53 0.28 71 1013.9
20260507022516 46 130 1.0 2.0 0.00 0.53 0.28 70 1013.9
20260507022018 46 156 1.0 2.0 0.00 0.53 0.28 70 1013.9
20260507021516 46 147 1.0 3.0 0.00 0.53 0.28 70 1013.8
20260507021018 46 41 1.0 3.0 0.00 0.53 0.28 70 1013.7
20260507020514 46 147 1.0 3.0 0.00 0.53 0.28 70 1013.9
20260507020015 46 103 0.0 2.0 0.00 0.53 0.28 70 1013.8
20260507015514 46 84 0.0 2.0 0.00 0.61 0.28 70 1013.9
20260507015013 46 84 0.0 2.0 0.00 0.61 0.28 70 1013.8
20260507014517 46 112 0.0 2.0 0.00 0.61 0.28 70 1013.6
20260507014013 46 84 0.0 2.0 0.00 0.61 0.28 69 1013.5
20260507013513 46 95 1.0 2.0 0.00 0.61 0.28 69 1013.4
20260507013020 46 130 0.0 2.0 0.00 0.61 0.28 69 1013.5
20260507012511 46 84 1.0 2.0 0.00 0.61 0.28 69 1013.4
20260507012011 46 41 0.0 2.0 0.00 0.61 0.28 69 1013.5
20260507011517 46 58 0.0 2.0 0.00 0.61 0.28 69 1013.3
20260507011009 46 34 1.0 2.0 0.00 0.61 0.28 69 1013.4
20260507010512 47 67 0.0 2.0 0.00 0.61 0.28 69 1013.4
20260507010009 47 356 1.0 2.0 0.00 0.61 0.28 69 1013.4
20260507005508 47 58 0.0 2.0 0.00 0.71 0.28 69 1013.4
20260507005009 47 41 0.0 2.0 0.00 0.71 0.28 69 1013.3
20260507004522 47 10 1.0 3.0 0.00 0.71 0.28 69 1013.4
20260507004009 47 41 0.0 3.0 0.00 0.71 0.28 68 1013.3
20260507003510 47 356 1.0 3.0 0.00 0.71 0.28 68 1013.3
20260507003008 47 23 1.0 2.0 0.00 0.71 0.28 68 1013.4
20260507002508 47 41 0.0 2.0 0.00 0.71 0.28 68 1013.4
20260507002008 47 30 1.0 2.0 0.00 0.71 0.28 68 1013.4
20260507001507 47 15 0.0 2.0 0.00 0.71 0.28 68 1013.4
20260507001007 47 156 1.0 0.0 0.00 0.00 0.28 68 1013.4
20260507000507 47 356 1.0 3.0 0.00 0.71 0.28 67 1013.3
20260507000009 47 84 1.0 2.0 0.00 0.71 0.28 67 1013.3
20260506235507 47 356 0.0 3.0 0.00 0.76 0.28 67 1013.3
20260506235006 47 84 1.0 3.0 0.00 0.76 0.28 67 1013.4
20260506234507 47 356 1.0 3.0 0.00 0.76 0.28 67 1013.3
20260506234005 47 58 1.0 5.0 0.00 0.76 0.28 66 1013.3
20260506233505 47 10 2.0 5.0 0.00 0.76 0.28 66 1013.3
20260506233005 47 58 2.0 6.0 0.00 0.76 0.28 66 1013.3
20260506232503 47 41 1.0 8.0 0.00 0.76 0.28 66 1013.2
20260506232003 47 342 3.0 8.0 0.00 0.76 0.28 66 1013.1
20260506231509 47 41 3.0 10.0 0.00 0.76 0.28 65 1013.1
20260506231003 48 6 5.0 10.0 0.00 0.76 0.28 65 1013.0
20260506230501 48 356 6.0 9.0 0.00 0.76 0.28 65 1013.2
20260506230002 48 339 4.0 9.0 0.00 0.76 0.28 65 1013.2
20260506225501 48 348 4.0 8.0 0.00 0.92 0.28 65 1013.1
20260506225001 48 322 3.0 8.0 0.00 0.92 0.28 65 1013.0
20260506224501 48 326 4.0 9.0 0.00 0.92 0.28 65 1013.1
20260506224002 48 320 4.0 9.0 0.00 0.92 0.28 64 1013.0
20260506223501 48 314 3.0 9.0 0.00 0.92 0.28 64 1013.1
20260506223100 48 337 4.0 10.0 0.00 0.92 0.28 65 1013.1
20260506222603 48 346 4.0 10.0 0.00 0.92 0.28 65 1013.0
20260506222059 48 4 3.0 9.0 0.00 0.92 0.28 64 1012.9
20260506221558 49 27 4.0 9.0 0.00 0.92 0.28 65 1012.9
20260506221057 49 303 3.0 8.0 0.00 0.92 0.28 65 1012.9
20260506220556 49 356 2.0 8.0 0.00 0.92 0.28 65 1012.7
20260506220057 49 46 3.0 8.0 0.00 0.92 0.28 65 1012.8
20260506215555 49 330 3.0 10.0 0.00 1.18 0.28 65 1012.8
20260506215055 49 332 6.0 11.0 0.00 1.18 0.28 65 1012.7
20260506214553 49 321 5.0 11.0 0.00 1.18 0.28 65 1012.6
20260506214053 49 18 4.0 9.0 0.00 1.18 0.28 65 1012.4
20260506213552 49 29 3.0 11.0 0.00 1.18 0.28 65 1012.3
20260506213108 49 15 6.0 11.0 0.00 1.18 0.28 66 1012.2
20260506212552 49 335 5.0 9.0 0.00 1.18 0.28 66 1012.2
20260506212153 49 4 3.0 9.0 0.00 1.18 0.28 66 1012.2
20260506211604 49 350 6.0 9.0 0.00 1.18 0.28 66 1012.2
20260506211051 49 356 5.0 9.0 0.00 1.18 0.28 66 1012.2
20260506210551 49 356 3.0 7.0 0.00 1.18 0.28 66 1012.1
20260506210051 50 10 3.0 8.0 0.00 1.18 0.28 66 1012.2
20260506205550 50 334 5.0 8.0 0.00 1.34 0.28 65 1012.2
20260506205050 50 3 4.0 8.0 0.00 1.34 0.28 66 1012.2
20260506204556 50 338 4.0 11.0 0.00 1.34 0.28 65 1012.2
20260506204049 50 10 4.0 15.0 0.00 1.34 0.28 65 1012.2
20260506203549 50 356 4.0 15.0 0.00 1.34 0.28 65 1012.1
20260506203052 51 341 5.0 13.0 0.00 1.34 0.28 64 1012.1
20260506202549 51 27 6.0 13.0 0.01 1.34 0.28 63 1011.9
20260506202052 51 3 5.0 10.0 0.01 1.34 0.28 63 1011.9
20260506201559 51 281 3.0 11.0 0.01 1.34 0.28 63 1012.0
20260506201048 51 4 4.0 13.0 0.01 1.34 0.28 62 1012.1
20260506200547 51 351 7.0 13.0 0.01 1.34 0.28 60 1012.1
20260506200052 51 311 5.0 11.0 0.01 1.34 0.28 60 1012.0
20260506195547 51 333 2.0 12.0 0.01 1.39 0.28 58 1012.1
20260506195049 52 306 6.0 14.0 0.01 1.39 0.28 58 1012.2
20260506194557 52 329 7.0 14.0 0.01 1.39 0.28 57 1012.1
20260506194046 52 319 3.0 14.0 0.01 1.39 0.28 59 1012.2
20260506193547 52 314 2.0 11.0 0.01 1.39 0.28 56 1012.1
20260506193045 52 300 5.0 11.0 0.00 1.38 0.28 58 1012.0
20260506192548 52 310 4.0 12.0 0.00 1.38 0.28 60 1012.0
20260506192044 52 4 5.0 13.0 0.00 1.38 0.28 62 1012.1
20260506191547 52 84 2.0 17.0 0.00 1.38 0.28 61 1012.2
20260506191044 52 356 9.0 17.0 0.00 1.38 0.28 62 1012.2
20260506190542 52 23 5.0 15.0 0.00 1.38 0.28 61 1012.1
20260506190040 53 28 6.0 14.0 0.00 1.38 0.28 63 1012.0
20260506185539 52 4 3.0 13.0 0.00 1.38 0.28 64 1012.2
20260506185042 52 295 4.0 13.0 0.00 1.38 0.28 66 1012.2
20260506184537 52 339 3.0 15.0 0.00 1.38 0.28 66 1012.1
20260506184037 52 356 8.0 15.0 0.00 1.38 0.28 66 1012.2
20260506183536 52 34 5.0 17.0 0.00 1.38 0.28 66 1012.1
20260506183042 51 312 5.0 17.0 0.00 1.38 0.28 67 1012.3
20260506182534 51 8 8.0 18.0 0.00 1.38 0.28 67 1012.2
20260506182037 52 349 7.0 20.0 0.00 1.38 0.28 67 1012.2
20260506181534 52 18 9.0 20.0 0.00 1.38 0.28 67 1012.2
20260506181032 52 25 9.0 15.0 0.00 1.38 0.28 67 1012.3
20260506180534 52 309 8.0 15.0 0.00 1.38 0.28 69 1012.1
20260506180035 51 320 5.0 16.0 0.00 1.38 0.28 68 1012.3
20260506175532 51 301 7.0 22.0 0.00 1.38 0.28 68 1012.3
20260506175029 51 319 10.0 22.0 0.00 1.38 0.28 68 1012.3
20260506174529 51 344 3.0 15.0 0.00 1.38 0.28 69 1012.1
20260506174028 51 304 7.0 15.0 0.00 1.38 0.28 68 1012.0
20260506173528 51 300 4.0 15.0 0.00 1.38 0.28 67 1011.8
20260506173027 51 298 2.0 16.0 0.00 1.38 0.28 67 1011.8
20260506172526 51 325 7.0 16.0 0.00 1.38 0.28 67 1012.0
20260506172029 52 319 7.0 14.0 0.00 1.38 0.28 67 1012.0
20260506171530 52 309 2.0 12.0 0.00 1.38 0.28 66 1012.2
20260506171028 52 305 5.0 12.0 0.00 1.38 0.28 68 1012.3
20260506170525 52 316 4.0 14.0 0.00 1.38 0.28 68 1012.2
20260506170024 52 341 6.0 16.0 0.00 1.38 0.28 68 1012.1
20260506165522 52 313 7.0 16.0 0.00 1.38 0.28 69 1011.9
20260506165021 52 311 8.0 18.0 0.00 1.38 0.28 69 1011.9
20260506164522 52 301 7.0 18.0 0.00 1.38 0.28 70 1011.7
20260506164023 51 359 7.0 16.0 0.00 1.38 0.28 70 1011.7
20260506163520 51 342 7.0 18.0 0.00 1.38 0.28 71 1011.6
20260506163019 51 11 7.0 15.0 0.00 1.38 0.28 71 1011.6
20260506162523 51 305 8.0 16.0 0.00 1.38 0.28 71 1011.5
20260506162021 51 13 8.0 20.0 0.00 1.38 0.28 70 1011.4
20260506161516 51 301 9.0 20.0 0.00 1.38 0.28 70 1011.5
20260506161016 52 15 10.0 20.0 0.00 1.38 0.28 70 1011.4
20260506160517 52 325 4.0 12.0 0.00 1.38 0.28 72 1011.3
20260506160016 52 324 3.0 12.0 0.00 1.38 0.28 73 1011.3
20260506155512 52 309 5.0 12.0 0.00 1.38 0.28 74 1011.4
20260506155011 52 281 3.0 17.0 0.00 1.38 0.28 76 1011.4
20260506154509 51 324 8.0 21.0 0.00 1.38 0.28 77 1011.3
20260506154008 51 341 8.0 21.0 0.00 1.38 0.28 78 1011.1
20260506153506 51 288 8.0 19.0 0.00 1.38 0.28 80 1011.0
20260506153010 50 338 6.0 19.0 0.00 1.38 0.28 81 1010.7
20260506152504 50 314 4.0 19.0 0.00 1.38 0.28 83 1010.8
20260506152002 49 341 7.0 19.0 0.00 1.38 0.28 84 1010.6
20260506151502 49 1 8.0 17.0 0.00 1.38 0.28 85 1010.4
20260506151103 49 329 5.0 17.0 0.00 1.38 0.28 86 1010.4
20260506150558 49 301 5.0 17.0 0.00 1.38 0.28 86 1010.4
20260506150057 48 309 6.0 14.0 0.00 1.38 0.28 87 1010.3
20260506145557 48 309 2.0 10.0 0.00 1.38 0.28 87 1010.4
20260506145059 48 3 4.0 10.0 0.00 1.38 0.28 88 1010.3
20260506144604 48 304 2.0 6.0 0.00 1.38 0.28 89 1010.2
20260506144052 48 329 2.0 8.0 0.00 1.38 0.28 89 1010.2
20260506143552 47 264 2.0 8.0 0.00 1.38 0.28 89 1010.1
20260506143050 47 313 2.0 8.0 0.00 1.38 0.28 90 1010.1
20260506142550 47 264 4.0 8.0 0.00 1.38 0.28 90 1010.1
20260506142052 46 326 1.0 5.0 0.00 1.38 0.28 90 1010.0
20260506141547 46 356 2.0 6.0 0.00 1.38 0.28 90 1009.8
20260506141046 46 356 2.0 7.0 0.00 1.38 0.28 90 1009.8
20260506140549 46 323 2.0 11.0 0.00 1.38 0.28 90 1009.8
20260506140048 45 345 3.0 11.0 0.00 1.38 0.28 90 1009.9
20260506135545 45 301 3.0 7.0 0.00 1.38 0.28 91 1010.0
20260506135045 45 298 2.0 7.0 0.00 1.38 0.28 90 1009.9
20260506134544 45 41 1.0 7.0 0.00 1.38 0.28 90 1010.0
20260506134043 45 318 2.0 7.0 0.00 1.38 0.28 90 1009.9
20260506133541 45 309 3.0 7.0 0.00 1.38 0.28 91 1009.8
20260506133043 45 298 1.0 9.0 0.00 1.38 0.28 91 1009.8
20260506132540 45 318 2.0 9.0 0.00 1.38 0.28 91 1009.8
20260506132042 45 245 2.0 6.0 0.00 1.38 0.28 91 1009.7
20260506131538 45 326 3.0 6.0 0.00 1.38 0.28 91 1009.7
20260506131038 45 314 2.0 5.0 0.00 1.38 0.28 91 1009.5
20260506130536 45 264 2.0 5.0 0.00 1.38 0.28 91 1009.1
20260506130036 45 84 2.0 7.0 0.00 1.38 0.28 91 1009.1
20260506125534 45 290 1.0 7.0 0.00 1.38 0.28 91 1009.2
20260506125033 45 335 2.0 6.0 0.00 1.38 0.28 91 1009.0
20260506124533 45 335 1.0 6.0 0.00 1.38 0.28 91 1008.7
20260506124033 45 303 3.0 6.0 0.00 1.38 0.28 91 1008.7
20260506123533 45 331 1.0 6.0 0.00 1.38 0.28 91 1008.9
20260506123034 45 281 2.0 6.0 0.00 1.38 0.28 91 1009.0
20260506122533 44 322 1.0 4.0 0.00 1.38 0.28 91 1008.8
20260506122031 44 339 1.0 5.0 0.00 1.38 0.28 91 1008.8
20260506121531 44 317 2.0 5.0 0.00 1.38 0.28 91 1009.0
20260506121030 44 41 1.0 2.0 0.00 1.38 0.28 91 1009.0
20260506120529 44 41 0.0 3.0 0.00 1.38 0.28 91 1008.7
20260506120039 44 356 1.0 3.0 0.00 1.38 0.28 91 1008.6
20260506115528 44 316 1.0 3.0 0.00 1.38 0.28 91 1008.7
20260506115026 44 319 1.0 3.0 0.00 1.38 0.28 91 1008.7
20260506114526 44 147 0.0 4.0 0.00 1.38 0.28 91 1008.6
20260506114025 44 41 0.0 4.0 0.00 1.38 0.28 90 1008.5
20260506113524 44 147 0.0 2.0 0.00 1.38 0.28 90 1008.4
20260506113029 44 319 1.0 2.0 0.00 1.38 0.28 90 1008.3
20260506112522 44 342 1.0 3.0 0.00 1.38 0.28 90 1008.2
20260506112022 44 41 1.0 3.0 0.00 1.38 0.28 90 1008.2
20260506111521 44 356 1.0 4.0 0.00 1.38 0.28 90 1008.2
20260506111020 44 326 2.0 4.0 0.00 1.38 0.28 90 1007.9
20260506110519 44 326 1.0 5.0 0.00 1.38 0.28 90 1007.7
20260506110019 44 335 2.0 5.0 0.00 1.38 0.28 90 1007.9
20260506105617 44 319 3.0 7.0 0.00 1.38 0.28 90 1007.6
20260506105018 43 23 3.0 7.0 0.00 1.38 0.28 90 1007.5
20260506104517 43 84 1.0 7.0 0.00 1.38 0.28 90 1007.4
20260506104017 43 20 3.0 7.0 0.00 1.38 0.28 90 1007.6
20260506103518 43 340 3.0 9.0 0.00 1.38 0.28 90 1007.9
20260506103017 43 324 2.0 9.0 0.00 1.38 0.28 90 1007.7
20260506102516 43 329 3.0 7.0 0.01 1.38 0.28 90 1007.6
20260506102016 43 311 4.0 8.0 0.01 1.38 0.28 90 1007.5
20260506101516 43 324 3.0 8.0 0.02 1.38 0.28 90 1007.1
20260506101017 43 344 3.0 5.0 0.02 1.38 0.28 90 1006.8
20260506100514 43 333 2.0 4.0 0.03 1.38 0.28 90 1006.9
20260506100013 43 23 1.0 4.0 0.03 1.38 0.28 90 1006.5
20260506095512 43 23 2.0 4.0 0.03 1.38 0.28 90 1006.8
20260506095011 44 34 1.0 6.0 0.03 1.38 0.28 90 1006.9
20260506094512 44 6 2.0 9.0 0.04 1.38 0.28 90 1007.2
20260506094011 44 337 4.0 9.0 0.04 1.38 0.28 90 1007.4
20260506093510 44 3 4.0 11.0 0.04 1.38 0.28 90 1007.7
20260506093010 44 339 2.0 11.0 0.04 1.38 0.28 90 1007.8
20260506092509 44 328 3.0 8.0 0.04 1.37 0.27 90 1007.9
20260506092009 44 345 4.0 8.0 0.04 1.37 0.27 90 1007.8
20260506091514 44 325 3.0 8.0 0.04 1.36 0.26 90 1007.7
20260506091007 45 333 4.0 9.0 0.05 1.36 0.26 90 1007.5
20260506090505 45 326 4.0 13.0 0.05 1.35 0.25 90 1007.4
20260506090010 45 329 5.0 13.0 0.06 1.35 0.25 90 1007.2
20260506085508 45 315 5.0 10.0 0.06 1.35 0.25 90 1007.3
20260506085003 45 321 2.0 7.0 0.08 1.35 0.25 90 1007.1
20260506084503 45 322 4.0 7.0 0.07 1.34 0.24 90 1007.0
20260506084003 45 15 2.0 9.0 0.07 1.34 0.24 90 1006.9
20260506083503 45 27 4.0 9.0 0.07 1.34 0.24 90 1006.9
20260506083001 45 339 3.0 6.0 0.08 1.34 0.24 90 1007.0
20260506082502 45 34 4.0 8.0 0.08 1.33 0.23 90 1007.0
20260506082001 45 326 4.0 8.0 0.08 1.33 0.23 90 1007.2
20260506081500 45 344 4.0 8.0 0.08 1.32 0.22 90 1007.3
20260506081100 45 8 3.0 8.0 0.08 1.31 0.21 90 1007.4
20260506080600 45 15 3.0 6.0 0.07 1.30 0.20 90 1007.4
20260506073158 45 295 3.0 9.0 0.04 1.26 0.16 90 1007.1
20260506072555 45 356 4.0 9.0 0.03 1.25 0.15 90 1007.0
20260506072055 45 6 4.0 9.0 0.03 1.25 0.15 90 1007.0
20260506071555 45 290 4.0 7.0 0.03 1.24 0.14 90 1007.0
20260506071054 45 349 4.0 7.0 0.02 1.23 0.13 90 1006.9
20260506070553 45 3 2.0 6.0 0.02 1.23 0.13 90 1006.9